Weather in Shurupovsky

Russia / Volgograd Oblast     49°43′42″N   43°42′26″E
temp.,
°C
wind,
m/s
gust,
m/s
humid.,
%
clouds,
%
prec.,
mm/h
press.,
hPa
HPBL,
m
5 august, thu
thu500:00+20nne4759100 0.0 1016114
03:00+19nne355811 0.0 101690
06:00+19nne346557 0.0 1017115
09:00+26ne334181 0.0 10171101
12:00+28nne3228100 0.0 10162393
15:00+30n33241 0.0 10162750
18:00+29nne3224100 0.0 10152474
21:00+23ne4837100 0.0 1015132
6 august, fri
fri600:00+22ene474099 0.0 1016106
03:00+20e46455 0.0 101594
06:00+21ese48462 0.0 1016174
09:00+28ese44290 0.0 1015740
12:00+31ese54230 0.0 10142026
15:00+33ese54190 0.0 10132535
18:00+31ese452016 0.0 10121219
21:00+24e6123139 0.0 1013216
7 august, sat
sat700:00+23e715325 0.0 1013323
03:00+22ese6143435 0.0 1013294
06:00+22ese6143377 0.0 1013315
09:00+29ese7923100 0.0 1013783
12:00+33ese661861 0.0 10121738
15:00+34ese5515100 0.0 10112146
18:00+33ese5717100 0.0 1010398
21:00+27e472184 0.0 101186
8 august, sun
sun800:00+26e5132394 0.0 1011195
03:00+24ese51327100 0.0 1011208
06:00+24ese41030100 0.0 1012209
09:00+31ese6822100 0.0 1012531
12:00+35ese5817100 0.0 10111735
15:00+36e7916100 0.0 10102332
18:00+31e8112592 0.0 1010358
21:00+31ne71324100 0.0 1009444
9 august, mon
mon900:00+30ne9142363 0.0 1008549
03:00+28ene7132597 0.0 1007339
06:00+25ne6123687 0.1 1007328
09:00+30ene562680 0.2 1007901
12:00+33nne222315 0.0 10071612
15:00+35nnw642387 0.0 10062440
18:00+34nnw472381 0.0 10062446
21:00+29nnw101633100 0.0 1008641